Terminal Aerodrome Forecast
Issued by NWS Quad Cities IA IL

Home | Current Version | Previous Version | Text Only | Print | Product List | Glossary On
Versions: 1 2 3 4 5 6 7 8 9 10 11 12 13 14 15 16 17 18 19 20 21 22 23
000
FTUS43 KDVN 251129
TAFMLI
TAF
KMLI 251129Z 2512/2612 27003KT 6SM BR BKN035
     FM251300 28004KT P6SM VCTS BKN040CB
     FM251600 31007KT P6SM SCT040
     FM260000 00000KT P6SM BKN200=

USA.gov is the U.S. government's official web portal to all federal, state and local government web resources and services.